Voltar ao catálogo

STARLINK-35931

AtivoComunicaçõesVLEO
NORAD 66519·PAYLOAD·🇺🇸 United States

Lançado Nov 19, 2025 de Cape Canaveral Space Force Station

Loading…

Próximas Passagens (próximas 24 horas)

TLE

AtualizadoSource: CelesTrak SupGP

Época: Sep 15, 2026, 03:09 UTC

1 66519C 25265D   26258.13173611  .00005079  00000+0  18382-3 0  2586
2 66519  43.0001 288.1442 0001166 265.8145 151.9275 15.27601702    13

Acompanhe STARLINK-35931 em tempo real com AllMySat

Download on the App Store